The Dalles, WA

4:35 AM PST on November 13, 2019 (GMT -0800)
Columbia Gorge Regional-The Dalles

Weather History for KDLS - September, 2019

Change the Weather History Date:

Sunday, September 1, 2019

  Actual Average Record
Temperature  
Mean Temperature 76 °F -  
Max Temperature 87 °F 84 °F 102 °F (1998)
Min Temperature 66 °F 56 °F 43 °F (1973)
Cooling Degree Days 11    
Growing Degree Days 26 (Base 50)    
Moisture  
Dew Point 55 °F    
Average Humidity 50    
Maximum Humidity 75    
Minimum Humidity 33    
Precipitation  
Precipitation 0.00 in - - ()
Sea Level Pressure  
Sea Level Pressure 29.92 in    
Wind  
Wind Speed 8 mph ()    
Max Wind Speed 23 mph    
Max Gust Speed 32 mph    
Visibility 10.0 miles    
Events      
Averages and records for this station are not official NWS values.
T = Trace of Precipitation, MM = Missing Value Source: Averaged Metar Reports

Daily Weather History Graph

Daily Weather History Graph

Search for Another Location

Airport or City:

Astronomy

Sep. 01, 2019 Rise Set
Actual Time 6:25 AM PDT 7:42 PM PDT
Civil Twilight 5:55 AM PDT 8:13 PM PDT
Nautical Twilight 5:18 AM PDT 8:50 PM PDT
Astronomical Twilight 4:38 AM PDT 9:29 PM PDT
Moon 9:08 AM PDT (9/1) 9:24 PM PDT (9/1)
Length of Visible Light 14h 18m
Length of Day
13h 16m
Waxing Crescent, 8% of the Moon is Illuminated
Sep 1
Waxing Crescent
Sep 5
First Quarter
Sep 13
Full
Sep 21
Last Quarter
Sep 28
New

Hourly Weather History & Observations

Time (PDT) Temp. Heat Index Dew Point Humidity Pressure Visibility Wind Dir Wind Speed Gust Speed Precip Events Conditions
12:53 AM 73.9 °F - 57.9 °F 57% 29.90 in 10.0 mi NW 9.2 mph - N/A   Clear
1:53 AM 72.0 °F - 57.9 °F 61% 29.91 in 10.0 mi SW 3.5 mph - N/A   Clear
2:53 AM 71.1 °F - 59.0 °F 66% 29.92 in 10.0 mi Calm Calm - N/A   Clear
3:53 AM 69.1 °F - 57.9 °F 68% 29.92 in 10.0 mi WSW 6.9 mph - N/A   Clear
4:53 AM 66.9 °F - 57.9 °F 73% 29.92 in 10.0 mi WSW 6.9 mph - N/A   Clear
5:53 AM 66.9 °F - 57.9 °F 73% 29.93 in 10.0 mi Calm Calm - N/A   Clear
6:53 AM 66.0 °F - 57.9 °F 75% 29.94 in 10.0 mi SW 3.5 mph - N/A   Clear
7:53 AM 69.1 °F - 57.9 °F 68% 29.96 in 10.0 mi Calm Calm - N/A   Clear
8:53 AM 73.9 °F - 60.1 °F 62% 29.96 in 10.0 mi Variable 5.8 mph - N/A   Clear
9:53 AM 77.0 °F - 59.0 °F 54% 29.95 in 10.0 mi NW 8.1 mph - N/A   Clear
10:53 AM 80.1 °F 80.4 °F 57.0 °F 45% 29.94 in 10.0 mi NNW 16.1 mph - N/A   Clear
11:53 AM 82.0 °F 81.7 °F 57.0 °F 42% 29.94 in 10.0 mi NNW 12.7 mph - N/A   Clear
12:53 PM 84.9 °F 83.7 °F 55.9 °F 37% 29.92 in 10.0 mi WNW 16.1 mph 23.0 mph N/A   Clear
1:53 PM 84.9 °F 83.6 °F 55.0 °F 36% 29.90 in 10.0 mi WNW 17.3 mph - N/A   Clear
2:53 PM 86.0 °F 84.5 °F 55.0 °F 35% 29.89 in 10.0 mi WNW 15.0 mph - N/A   Clear
3:53 PM 86.0 °F 84.2 °F 54.0 °F 33% 29.88 in 10.0 mi WNW 19.6 mph 32.2 mph N/A   Clear
4:53 PM 82.9 °F 81.8 °F 53.1 °F 36% 29.88 in 10.0 mi NW 23.0 mph 28.8 mph N/A   Clear
5:53 PM 82.0 °F - 52.0 °F 35% 29.88 in 10.0 mi NW 17.3 mph 24.2 mph N/A   Clear
6:53 PM 80.1 °F - 50.0 °F 35% 29.89 in 10.0 mi WNW 17.3 mph 25.3 mph N/A   Clear
7:53 PM 77.0 °F - 48.9 °F 37% 29.90 in 10.0 mi West 15.0 mph - N/A   Clear
8:53 PM 75.9 °F - 50.0 °F 40% 29.92 in 10.0 mi West 11.5 mph - N/A   Clear
9:53 PM 75.0 °F - 50.0 °F 41% 29.92 in 10.0 mi West 11.5 mph - N/A   Clear
10:53 PM 73.0 °F - 50.0 °F 44% 29.94 in 10.0 mi West 11.5 mph - N/A   Clear
11:53 PM 69.1 °F - 51.1 °F 53% 29.95 in 10.0 mi NW 8.1 mph - N/A   Clear